[[{"header":{"parameterUnit":"m.s-1","parameterCategory":1,"la1":30.2991,"la2":30.254,"lo1":-89.0895,"lo2":-89.0444,"dy":0.0017,"dx":0.0017,"nx":28,"ny":28,"refTime":"2024-10-22T03:00:00:Z","depth":0,"parameterNumber":2,"parameterNumberName":"U-component_of_WINDS"},"data":[0,0,0,0,0,0,0,0,0,0,0,0,0,0,0,0,0,0,0,0,0,0,0,0,0,0,0,0,0,0,0,0,0,0,0,0,0,0,0,0,0,0,0,0,0,0,0,0,0,0,0,0,0,0,0,0,0,0,1.0821,1.0822,0,1.0931,1.0932,1.0934,1.0949,1.0948,1.0947,1.0946,1.1062,1.1065,1.1069,0,0,0,0,0,0,0,0,0,0,0,0,0,1.0626,1.063,1.0821,1.0822,1.0824,1.0931,1.0932,1.0934,1.0949,1.0948,1.0946,1.0945,1.106,1.1065,1.107,0,0,0,0,0,0,0,0,0,0,0,0,0,1.0721,1.0631,1.0821,1.0844,1.0847,1.0931,1.0932,1.0934,1.0949,1.0948,1.0946,1.0945,1.1059,1.1064,1.107,1.1139,0,0,1.1089,1.1092,0,0,0,0,0,0,0,0,1.0716,1.0728,1.0839,1.0843,1.0846,1.0924,1.0906,1.1003,1.0949,1.0911,1.0946,1.0944,1.1017,1.1027,1.1051,1.1145,1.115,1.109,1.1093,1.1096,1.1098,0,0,0,0,0,0,0,1.0709,1.0723,1.0865,1.0841,1.0845,1.085,1.0861,1.0925,1.0972,1.0914,1.0915,1.0928,1.1019,1.1045,1.1054,1.1151,1.1089,1.1095,1.1099,1.1101,1.1306,1.1308,0,0,0,0,0,0,1.0698,1.0718,1.0861,1.0868,1.0776,1.0854,1.0868,1.0901,1.0971,1.098,1.0929,1.0928,1.1035,1.1047,1.1058,1.1142,1.1096,1.1102,1.1105,1.1305,1.1307,1.1309,0,0,0,0,0,0,1.0693,1.071,1.0857,1.0793,1.0812,1.0859,1.0897,1.0904,1.093,1.0982,1.0991,1.0947,1.1035,1.1049,1.1118,1.1146,1.1104,1.111,1.1302,1.1305,1.1308,1.1311,0,0,0,0,0,0,1.0688,1.0709,1.0735,1.0794,1.0816,1.0915,1.0899,1.0907,1.094,1.094,1.1001,1.101,1.1035,1.1109,1.1125,1.1154,1.1115,1.13,1.1304,1.1307,1.1308,1.1313,1.1318,0,0,0,0,0,1.0681,1.0732,1.0736,1.0753,1.0849,1.0916,1.0929,1.0955,1.0942,1.0969,1.1003,1.1008,1.1141,1.1116,1.1134,1.1165,1.1298,1.1303,1.1307,1.1306,1.1312,1.1317,0,0,0,0,0,0,1.0676,1.074,1.0745,1.0817,1.0861,1.0918,1.0953,1.0961,1.101,1.1008,1.1039,1.1053,1.1121,1.115,1.1122,1.1235,1.1219,1.1226,1.1213,1.1219,1.1223,1.1214,1.112,0,0,0,0,0,1.0684,1.0732,1.0786,1.0844,1.0866,1.0905,1.0936,1.0952,1.0999,1.1018,1.1057,1.1103,1.1155,1.1189,1.124,1.1313,1.1327,1.1344,1.1348,1.1352,1.1357,1.1397,1.1405,1.1322,1.1322,1.1322,0,0,1.0699,1.074,1.0769,1.0844,1.088,1.093,1.0921,1.0974,1.1012,1.1027,1.1093,1.1124,1.1178,1.1249,1.1282,1.1275,1.1383,1.1357,1.1359,1.1363,1.1402,1.141,1.1417,1.1325,1.1324,1.1324,0,0,1.0753,1.0789,1.0841,1.0877,1.0931,1.0957,1.0969,1.1026,1.1046,1.1113,1.1125,1.1171,1.126,1.1298,1.1328,1.1396,1.1402,1.1412,1.1435,1.1473,1.148,1.1486,1.1508,1.1516,1.1418,1.1418,1.1418,0,1.0765,1.084,1.0867,1.0919,1.0951,1.0966,1.1019,1.1053,1.1122,1.1144,1.1135,1.1247,1.1285,1.1364,1.138,1.1405,1.142,1.1404,1.1476,1.1483,1.1489,1.1511,1.1519,1.1418,1.1418,1.1418,1.1418,0,1.0852,1.0904,1.094,1.1003,1.104,1.1093,1.1128,1.1162,1.1175,1.1203,1.1271,1.1316,1.1376,1.1397,1.1411,1.1478,1.1472,1.147,1.1454,1.1497,1.1518,1.1527,1.1419,1.1419,1.1419,1.1419,0,0,1.0905,1.0983,1.0995,1.1024,1.1085,1.1125,1.1179,1.1236,1.1264,1.1311,1.1356,1.1431,1.1429,1.1464,1.1483,1.1517,1.1566,1.1511,1.1512,1.1518,1.1641,1.1641,1.1651,1.1571,1.1573,1.1574,1.1636,0,1.0964,1.1058,1.1084,1.1163,1.1211,1.1226,1.1272,1.1315,1.1342,1.1387,1.1418,1.1469,1.1464,1.1484,1.1519,1.1552,1.1591,1.1549,1.1613,1.1615,1.1597,1.1662,1.1662,1.1719,1.1645,1.1646,1.1647,0,1.1046,1.1092,1.1176,1.123,1.1251,1.1292,1.1346,1.1389,1.1438,1.1455,1.1494,1.1509,1.1566,1.1548,1.1626,1.1597,1.1625,1.1645,1.1648,1.1654,1.1633,1.1668,1.1737,1.1745,1.1661,1.166,1.1659,0,1.1074,1.1158,1.1219,1.1243,1.1308,1.1336,1.1364,1.1412,1.1444,1.1492,1.1513,1.1568,1.1598,1.164,1.167,1.1654,1.1745,1.173,1.1761,1.176,1.1778,1.1776,1.1851,1.1799,1.1799,1.1798,1.1798,0,1.1136,1.1186,1.1232,1.1269,1.1326,1.1356,1.1411,1.1441,1.1482,1.1526,1.1544,1.1584,1.1622,1.1668,1.1692,1.1752,1.1766,1.1782,1.1787,1.1779,1.1777,1.1797,1.1793,1.1801,1.18,1.18,1.1799,0,1.1176,1.1209,1.1276,1.1331,1.1346,1.1385,1.1433,1.147,1.1498,1.1553,1.1567,1.1611,1.1666,1.17,1.1771,1.1787,1.1853,1.1858,1.1836,1.1838,1.1866,1.1862,1.1955,1.1969,1.1909,1.1909,1.191,0,1.1213,1.1252,1.1311,1.134,1.1369,1.1417,1.145,1.1481,1.1514,1.1573,1.1603,1.1658,1.1704,1.1791,1.183,1.1884,1.1889,1.1918,1.1898,1.1888,1.1888,1.1884,1.1888,1.1921,1.1922,1.1922,1.1922,0,1.1274,1.1288,1.1334,1.1386,1.1424,1.1467,1.151,1.1534,1.1572,1.1609,1.1665,1.17,1.1771,1.1826,1.1883,1.1914,1.1924,1.1929,1.1938,1.193,1.1914,1.1922,1.1843,1.1926,1.1926,1.1925,1.1925,1.1925,1.1313,1.1347,1.1394,1.1445,1.148,1.1519,1.1556,1.1588,1.1635,1.1694,1.171,1.1768,1.1816,1.1893,1.1924,1.1971,1.1967,1.1981,1.1984,1.1987,1.1986,1.1908,1.1981,1.1981,1.1981,1.1981,1.1981,0,1.1373,1.1404,1.145,1.1509,1.1549,1.1555,1.1602,1.1635,1.1686,1.1729,1.1773,1.1837,1.189,1.1933,1.1988,1.2017,1.2023,1.203,1.2028,1.2034,1.1988,1.1973,1.2024,1.2024,1.2024,1.2024,1.2024,1.2024,1.1409,1.1468,1.1487,1.1564,1.1595,1.165,1.1677,1.1713,1.1748,1.1817,1.1861,1.1888,1.1932,1.199,1.2039,1.205,1.2069,1.2075,1.2087,1.2042,1.2038,1.2033,1.2019,1.2079,1.2079,1.2129,1.213,1.213]},{"header":{"parameterUnit":"m.s-1","parameterCategory":1,"la1":30.2991,"la2":30.254,"lo1":-89.0895,"lo2":-89.0444,"dy":0.0017,"dx":0.0017,"nx":28,"ny":28,"refTime":"2024-10-22T03:00:00:Z","depth":0,"parameterNumber":3,"parameterNumberName":"V-component_of_WINDS"},"data":[0,0,0,0,0,0,0,0,0,0,0,0,0,0,0,0,0,0,0,0,0,0,0,0,0,0,0,0,0,0,0,0,0,0,0,0,0,0,0,0,0,0,0,0,0,0,0,0,0,0,0,0,0,0,0,0,0,0,1.7196,1.7195,0,1.7121,1.712,1.712,1.7093,1.7093,1.7094,1.7094,1.7011,1.7008,1.7006,0,0,0,0,0,0,0,0,0,0,0,0,0,1.7308,1.7306,1.7196,1.7195,1.7194,1.7121,1.712,1.7119,1.7093,1.7093,1.7094,1.7094,1.7012,1.7009,1.7006,0,0,0,0,0,0,0,0,0,0,0,0,0,1.7249,1.7305,1.7196,1.7172,1.7169,1.7122,1.712,1.7119,1.7093,1.7093,1.7094,1.7094,1.7012,1.7009,1.7005,1.6973,0,0,1.6994,1.6992,0,0,0,0,0,0,0,0,1.7252,1.7245,1.7177,1.7174,1.7171,1.7117,1.7129,1.707,1.7093,1.7122,1.7094,1.7094,1.7045,1.7039,1.7024,1.697,1.6966,1.6993,1.6991,1.699,1.6989,0,0,0,0,0,0,0,1.7256,1.7248,1.7166,1.7176,1.7172,1.7163,1.7155,1.7118,1.7082,1.7119,1.7117,1.7109,1.7044,1.7027,1.7022,1.6965,1.6994,1.699,1.6988,1.6986,1.6878,1.6878,0,0,0,0,0,0,1.7265,1.7251,1.7168,1.7164,1.7213,1.7161,1.7152,1.7134,1.7082,1.7075,1.7109,1.7108,1.7034,1.7026,1.7019,1.6976,1.699,1.6986,1.6984,1.6879,1.6878,1.6877,0,0,0,0,0,0,1.7268,1.7258,1.7171,1.7207,1.7195,1.7158,1.7138,1.7132,1.7116,1.7074,1.7067,1.7099,1.7034,1.7024,1.6985,1.6973,1.6984,1.6981,1.688,1.6879,1.6878,1.6893,0,0,0,0,0,0,1.7271,1.7259,1.7249,1.7207,1.7194,1.7141,1.7137,1.713,1.711,1.7109,1.7064,1.7056,1.7033,1.6991,1.6981,1.6968,1.6978,1.688,1.6879,1.6878,1.6894,1.6893,1.6892,0,0,0,0,0,1.7275,1.7255,1.7248,1.7238,1.718,1.7141,1.7133,1.7109,1.711,1.7097,1.707,1.7058,1.6976,1.6987,1.6976,1.6962,1.6881,1.6879,1.6878,1.6894,1.6893,1.6893,0,0,0,0,0,0,1.7294,1.7249,1.7241,1.7208,1.7179,1.7137,1.7121,1.7109,1.7077,1.7077,1.7046,1.7036,1.6999,1.6976,1.6989,1.6927,1.6928,1.6924,1.6943,1.6942,1.6942,1.6947,1.6975,0,0,0,0,0,1.7295,1.727,1.723,1.7204,1.719,1.7158,1.714,1.7124,1.7092,1.7079,1.7049,1.7016,1.6983,1.6961,1.6929,1.689,1.6879,1.6875,1.6875,1.6874,1.6871,1.6847,1.6844,1.6873,1.6873,1.6873,0,0,1.7295,1.7268,1.7253,1.7207,1.7183,1.7155,1.7148,1.7118,1.7096,1.7073,1.7035,1.7012,1.6973,1.6934,1.6915,1.6914,1.6861,1.6872,1.6873,1.6869,1.6845,1.6842,1.684,1.6872,1.6872,1.6872,0,0,1.7282,1.7259,1.7234,1.721,1.7174,1.7152,1.7146,1.7106,1.709,1.7052,1.7033,1.7005,1.6949,1.6922,1.69,1.6875,1.6861,1.6865,1.6861,1.6838,1.6836,1.6834,1.6822,1.6819,1.6862,1.6862,1.6862,0,1.7286,1.7245,1.7222,1.7194,1.7173,1.7153,1.7126,1.7103,1.7056,1.7041,1.7042,1.697,1.6942,1.6896,1.6889,1.6873,1.6863,1.6869,1.6839,1.6836,1.6834,1.6823,1.6819,1.6862,1.6862,1.6862,1.6862,0,1.7252,1.7223,1.7207,1.7165,1.7142,1.7115,1.7085,1.7064,1.705,1.7027,1.6987,1.6953,1.6912,1.69,1.6885,1.685,1.6851,1.6845,1.6844,1.6832,1.6821,1.6817,1.6863,1.6863,1.6863,1.6863,0,0,1.7248,1.7194,1.7188,1.7168,1.7126,1.7102,1.7072,1.7034,1.7016,1.6984,1.6957,1.691,1.6904,1.688,1.6861,1.6841,1.682,1.6837,1.6836,1.6834,1.6777,1.6781,1.6777,1.6811,1.6811,1.681,1.678,0,1.7228,1.7176,1.7154,1.7111,1.7083,1.7063,1.7036,1.7006,1.6984,1.6955,1.6929,1.6896,1.6892,1.6877,1.6856,1.6827,1.6808,1.6829,1.6783,1.6781,1.6792,1.6771,1.6775,1.6749,1.6776,1.6775,1.6774,0,1.7198,1.7168,1.7123,1.7083,1.707,1.7047,1.7009,1.6983,1.6947,1.6932,1.6905,1.6887,1.6852,1.6854,1.6804,1.6819,1.6798,1.6781,1.6779,1.6772,1.6776,1.6763,1.674,1.6736,1.6768,1.6768,1.6769,0,1.7198,1.7146,1.7112,1.7096,1.7048,1.7032,1.7011,1.6976,1.6954,1.692,1.6905,1.6867,1.6846,1.6816,1.6787,1.6792,1.6738,1.6739,1.6722,1.6723,1.6711,1.6712,1.6683,1.67,1.67,1.67,1.6701,0,1.7177,1.715,1.7111,1.709,1.7058,1.7032,1.7,1.6977,1.6946,1.6918,1.6897,1.6871,1.6835,1.6803,1.678,1.674,1.6731,1.6716,1.671,1.6717,1.6719,1.6702,1.6703,1.6699,1.67,1.67,1.67,0,1.7172,1.7145,1.7107,1.7065,1.7054,1.7032,1.6995,1.6972,1.6949,1.6914,1.6904,1.6866,1.6828,1.6796,1.6745,1.6729,1.6687,1.6681,1.67,1.6697,1.6681,1.6683,1.664,1.6632,1.6656,1.6656,1.6656,0,1.716,1.7139,1.7095,1.7076,1.7055,1.7025,1.7002,1.6974,1.6951,1.6908,1.689,1.685,1.6817,1.6756,1.6722,1.6682,1.6674,1.6662,1.6668,1.6675,1.6671,1.6673,1.6669,1.6661,1.6661,1.6661,1.6661,0,1.7141,1.7128,1.7098,1.7063,1.7037,1.7008,1.6977,1.6962,1.6928,1.6902,1.6864,1.6838,1.6786,1.6746,1.6703,1.6678,1.6662,1.6659,1.6653,1.6659,1.667,1.6662,1.6697,1.666,1.666,1.666,1.666,1.666,1.713,1.711,1.7076,1.7042,1.7017,1.6988,1.6965,1.6939,1.6907,1.6864,1.6848,1.6808,1.677,1.671,1.6685,1.6651,1.6649,1.6641,1.6638,1.6636,1.6636,1.6677,1.6643,1.6643,1.6643,1.6643,1.6643,0,1.7109,1.7086,1.7055,1.7014,1.6987,1.6977,1.6942,1.6919,1.6885,1.6852,1.682,1.6774,1.6734,1.6698,1.6656,1.6635,1.6627,1.6625,1.6625,1.6619,1.6641,1.665,1.6632,1.6632,1.6632,1.6632,1.6632,1.6632,1.7095,1.7059,1.7042,1.6992,1.6968,1.693,1.6911,1.6884,1.6857,1.6808,1.6775,1.6753,1.6717,1.6672,1.6634,1.6624,1.6609,1.6608,1.6596,1.6617,1.6618,1.662,1.6628,1.6606,1.6606,1.6577,1.6577,1.6577]}]]